| time (UTC) | temp C | wind direction | speed KPH | gust KPH | rain 1hr cm | rain 24hr cm | rain mn cm | humidity % | barometer mb |
| 20260507123059 | 0 | 160 | 0.0 | 4.8 | 0.00 | 0.00 | 0.00 | 60 | 1019.7 |
| 20260507121601 | 0 | 146 | 4.8 | 6.4 | 0.00 | 0.00 | 0.00 | 60 | 1019.7 |
| 20260507120059 | 0 | 131 | 1.6 | 4.8 | 0.00 | 0.00 | 0.00 | 60 | 1019.7 |
| 20260507114600 | 0 | 122 | 0.0 | 1.6 | 0.00 | 0.00 | 0.00 | 59 | 1019.6 |
| 20260507113100 | 0 | 122 | 1.6 | 3.2 | 0.00 | 0.00 | 0.00 | 58 | 1019.6 |
| 20260507111600 | 0 | 122 | 1.6 | 3.2 | 0.00 | 0.00 | 0.00 | 59 | 1019.8 |
| 20260507104616 | 1 | 0 | 0.0 | 0.0 | 0.00 | 0.00 | 0.00 | 58 | 1019.9 |
| 20260507103118 | 1 | 0 | 0.0 | 0.0 | 0.00 | 0.00 | 0.00 | 58 | 1020.0 |
| 20260507101606 | 1 | 184 | 1.6 | 1.6 | 0.00 | 0.00 | 0.00 | 57 | 1020.1 |
| 20260507100107 | 1 | 200 | 3.2 | 4.8 | 0.00 | 0.00 | 0.00 | 55 | 1020.2 |
| 20260507094558 | 2 | 205 | 0.0 | 3.2 | 0.00 | 0.00 | 0.00 | 55 | 1020.1 |
| 20260507093101 | 2 | 209 | 3.2 | 4.8 | 0.00 | 0.00 | 0.00 | 55 | 1020.2 |
| 20260507091608 | 2 | 184 | 4.8 | 4.8 | 0.00 | 0.00 | 0.00 | 50 | 1020.3 |
| 20260507090103 | 3 | 143 | 0.0 | 1.6 | 0.00 | 0.00 | 0.00 | 47 | 1020.4 |
| 20260507084601 | 4 | 0 | 0.0 | 0.0 | 0.00 | 0.00 | 0.00 | 46 | 1020.4 |
| 20260507083100 | 3 | 0 | 0.0 | 0.0 | 0.00 | 0.00 | 0.00 | 46 | 1020.5 |
| 20260507081600 | 5 | 0 | 0.0 | 0.0 | 0.00 | 0.00 | 0.00 | 44 | 1020.6 |
| 20260507080059 | 5 | 0 | 0.0 | 0.0 | 0.00 | 0.00 | 0.00 | 47 | 1020.6 |
| 20260507074559 | 5 | 0 | 0.0 | 1.6 | 0.00 | 0.00 | 0.00 | 45 | 1020.6 |
| 20260507073104 | 5 | 0 | 0.0 | 6.4 | 0.00 | 0.00 | 0.00 | 43 | 1020.9 |
| 20260507071603 | 7 | 165 | 3.2 | 4.8 | 0.00 | 0.00 | 0.00 | 37 | 1020.9 |
| 20260507064602 | 6 | 113 | 0.0 | 1.6 | 0.00 | 0.00 | 0.00 | 38 | 1020.8 |
| 20260507063101 | 8 | 0 | 0.0 | 0.0 | 0.00 | 0.00 | 0.00 | 36 | 1020.6 |
| 20260507061604 | 7 | 92 | 0.0 | 1.6 | 0.00 | 0.00 | 0.00 | 37 | 1020.7 |
| 20260507060103 | 7 | 0 | 0.0 | 3.2 | 0.00 | 0.00 | 0.00 | 39 | 1020.6 |
| 20260507054607 | 8 | 89 | 0.0 | 4.8 | 0.00 | 0.00 | 0.00 | 35 | 1020.7 |
| 20260507053105 | 7 | 259 | 4.8 | 9.7 | 0.00 | 0.00 | 0.00 | 38 | 1020.6 |
| 20260507051602 | 8 | 0 | 0.0 | 4.8 | 0.00 | 0.00 | 0.00 | 34 | 1020.6 |
| 20260507050104 | 10 | 46 | 6.4 | 8.0 | 0.00 | 0.00 | 0.00 | 32 | 1020.7 |
| 20260507044606 | 11 | 1 | 3.2 | 4.8 | 0.00 | 0.00 | 0.00 | 32 | 1020.6 |
| 20260507043108 | 10 | 357 | 3.2 | 4.8 | 0.00 | 0.00 | 0.00 | 32 | 1020.5 |
| 20260507041607 | 10 | 349 | 3.2 | 4.8 | 0.00 | 0.00 | 0.00 | 31 | 1020.5 |
| 20260507040059 | 12 | 280 | 4.8 | 6.4 | 0.00 | 0.00 | 0.00 | 30 | 1020.4 |
| 20260507034613 | 12 | 295 | 4.8 | 6.4 | 0.00 | 0.00 | 0.00 | 29 | 1020.3 |
| 20260507033102 | 12 | 281 | 4.8 | 6.4 | 0.00 | 0.00 | 0.00 | 29 | 1020.3 |
| 20260507031601 | 13 | 295 | 4.8 | 6.4 | 0.00 | 0.00 | 0.00 | 26 | 1020.3 |
| 20260507024600 | 15 | 215 | 3.2 | 4.8 | 0.00 | 0.00 | 0.00 | 24 | 1020.1 |
| 20260507023104 | 15 | 0 | 0.0 | 1.6 | 0.00 | 0.00 | 0.00 | 22 | 1019.9 |
| 20260507021608 | 17 | 0 | 0.0 | 1.6 | 0.00 | 0.00 | 0.00 | 20 | 1020.0 |
| 20260507020109 | 17 | 216 | 1.6 | 6.4 | 0.00 | 0.00 | 0.00 | 20 | 1019.9 |
| 20260507014600 | 17 | 217 | 4.8 | 11.3 | 0.00 | 0.00 | 0.00 | 19 | 1019.9 |
| 20260507013103 | 17 | 198 | 4.8 | 14.5 | 0.00 | 0.00 | 0.00 | 19 | 1019.8 |
| 20260507011559 | 18 | 205 | 8.0 | 19.3 | 0.00 | 0.00 | 0.00 | 19 | 1019.7 |
| 20260507010058 | 18 | 174 | 9.7 | 19.3 | 0.00 | 0.00 | 0.00 | 18 | 1019.8 |
| 20260507004601 | 18 | 146 | 14.5 | 25.7 | 0.00 | 0.00 | 0.00 | 18 | 1020.0 |
| 20260507003100 | 18 | 133 | 16.1 | 24.1 | 0.00 | 0.00 | 0.00 | 18 | 1020.1 |
| 20260507001558 | 18 | 160 | 17.7 | 29.0 | 0.00 | 0.00 | 0.00 | 18 | 1019.9 |
| 20260507000058 | 18 | 175 | 16.1 | 25.7 | 0.00 | 0.00 | 0.00 | 20 | 1019.8 |
| 20260506234600 | 18 | 173 | 9.7 | 29.0 | 0.00 | 0.00 | 0.00 | 20 | 1019.8 |
| 20260506233104 | 18 | 202 | 12.9 | 25.7 | 0.00 | 0.00 | 0.00 | 20 | 1019.7 |
| 20260506231600 | 18 | 143 | 11.3 | 27.4 | 0.00 | 0.00 | 0.00 | 20 | 1019.7 |
| 20260506230058 | 18 | 136 | 19.3 | 32.2 | 0.00 | 0.00 | 0.00 | 20 | 1019.8 |
| 20260506224609 | 18 | 150 | 11.3 | 25.7 | 0.00 | 0.00 | 0.00 | 21 | 1019.8 |
| 20260506223112 | 18 | 141 | 14.5 | 32.2 | 0.00 | 0.00 | 0.00 | 20 | 1019.8 |
| 20260506221607 | 18 | 195 | 19.3 | 33.8 | 0.00 | 0.00 | 0.00 | 21 | 1019.9 |
| 20260506220105 | 18 | 153 | 12.9 | 32.2 | 0.00 | 0.00 | 0.00 | 20 | 1020.0 |
| 20260506214615 | 18 | 145 | 16.1 | 37.0 | 0.00 | 0.00 | 0.00 | 22 | 1020.1 |
| 20260506213107 | 18 | 174 | 17.7 | 35.4 | 0.00 | 0.00 | 0.00 | 22 | 1020.2 |
| 20260506211611 | 17 | 160 | 24.1 | 33.8 | 0.00 | 0.00 | 0.00 | 22 | 1020.3 |
| 20260506210108 | 17 | 124 | 19.3 | 40.2 | 0.00 | 0.00 | 0.00 | 23 | 1020.2 |
| 20260506204633 | 17 | 162 | 20.9 | 37.0 | 0.00 | 0.00 | 0.00 | 23 | 1020.2 |
| 20260506203100 | 17 | 160 | 25.7 | 37.0 | 0.00 | 0.00 | 0.00 | 22 | 1020.3 |
| 20260506201600 | 17 | 191 | 19.3 | 43.5 | 0.00 | 0.00 | 0.00 | 22 | 1020.1 |
| 20260506200101 | 17 | 150 | 29.0 | 46.7 | 0.00 | 0.00 | 0.00 | 23 | 1020.0 |
| 20260506194607 | 17 | 205 | 22.5 | 37.0 | 0.00 | 0.00 | 0.00 | 24 | 1020.0 |
| 20260506193059 | 17 | 147 | 25.7 | 46.7 | 0.00 | 0.00 | 0.00 | 23 | 1020.0 |
| 20260506191559 | 17 | 159 | 27.4 | 48.3 | 0.00 | 0.00 | 0.00 | 23 | 1019.9 |
| 20260506190100 | 17 | 143 | 30.6 | 49.9 | 0.00 | 0.00 | 0.00 | 24 | 1019.8 |
| 20260506184600 | 16 | 165 | 33.8 | 45.1 | 0.00 | 0.00 | 0.00 | 23 | 1019.9 |
| 20260506183109 | 16 | 150 | 19.3 | 37.0 | 0.00 | 0.00 | 0.00 | 26 | 1019.9 |
| 20260506181602 | 16 | 156 | 19.3 | 35.4 | 0.00 | 0.00 | 0.00 | 26 | 1020.0 |
| 20260506180058 | 15 | 162 | 19.3 | 33.8 | 0.00 | 0.00 | 0.00 | 32 | 1020.1 |
| 20260506174559 | 14 | 190 | 17.7 | 32.2 | 0.00 | 0.00 | 0.00 | 33 | 1020.0 |
| 20260506173100 | 14 | 158 | 17.7 | 33.8 | 0.00 | 0.00 | 0.00 | 32 | 1019.9 |
| 20260506171604 | 13 | 156 | 19.3 | 29.0 | 0.00 | 0.00 | 0.00 | 32 | 1019.8 |
| 20260506170107 | 13 | 153 | 17.7 | 33.8 | 0.00 | 0.00 | 0.00 | 33 | 1019.5 |
| 20260506164603 | 14 | 148 | 22.5 | 35.4 | 0.00 | 0.00 | 0.00 | 34 | 1019.2 |
| 20260506163106 | 14 | 153 | 24.1 | 35.4 | 0.00 | 0.00 | 0.00 | 33 | 1019.1 |
| 20260506161607 | 13 | 169 | 24.1 | 32.2 | 0.00 | 0.00 | 0.00 | 35 | 1019.0 |
| 20260506160058 | 12 | 162 | 19.3 | 25.7 | 0.00 | 0.00 | 0.00 | 43 | 1018.8 |
| 20260506154613 | 13 | 186 | 12.9 | 22.5 | 0.00 | 0.00 | 0.00 | 53 | 1018.8 |
| 20260506153058 | 13 | 184 | 14.5 | 22.5 | 0.00 | 0.00 | 0.00 | 59 | 1018.6 |
| 20260506151558 | 12 | 141 | 12.9 | 20.9 | 0.00 | 0.00 | 0.00 | 66 | 1018.6 |
| 20260506150059 | 11 | 159 | 12.9 | 22.5 | 0.00 | 0.00 | 0.00 | 70 | 1018.2 |
| 20260506144604 | 11 | 133 | 11.3 | 20.9 | 0.00 | 0.00 | 0.00 | 72 | 1018.1 |
| 20260506143059 | 11 | 167 | 14.5 | 22.5 | 0.00 | 0.00 | 0.00 | 74 | 1018.0 |
| 20260506141604 | 11 | 193 | 9.7 | 19.3 | 0.00 | 0.00 | 0.00 | 79 | 1017.9 |
| 20260506140122 | 10 | 188 | 9.7 | 17.7 | 0.00 | 0.00 | 0.00 | 81 | 1017.6 |
| 20260506131558 | 7 | 161 | 1.6 | 3.2 | 0.00 | 0.00 | 0.00 | 87 | 1016.7 |
| 20260506130100 | 7 | 161 | 0.0 | 4.8 | 0.00 | 0.00 | 0.00 | 87 | 1016.5 |
| 20260506124601 | 7 | 178 | 3.2 | 4.8 | 0.00 | 0.00 | 0.00 | 87 | 1016.0 |